Regional Weather Roundup
Issued by NWS Midland/Odessa, TX

Skip options and go directly to product.
Home | Oldest Version | Previous Version | Current Version | All | Text Only | Save Text | Print | Product List | Glossary On

Skip product version selection by date and time.   
879
ASUS44 KMAF 210510
RWRMAF
MIDLAND AREA WEATHER ROUNDUP
NATIONAL WEATHER SERVICE MIDLAND TX
1200 AM CDT TUE APR 21 2015

...IN SOUTHWEST TEXAS AND SOUTHEAST NEW MEXICO...

CITY           SKY/WX    TMP DP  RH WIND       PRES   REMARKS
ALPINE         FAIR      51  42  73 SW7       30.04S
ANDREWS        FAIR      55  40  56 S9        29.94S
ARTESIA        PTCLDY    57  39  51 S13       29.91F
BIG SPRING     CLEAR     61  38  41 SE10      29.96F
CARLSBAD       CLEAR     57  41  55 S10       29.89S
DRYDEN           N/A     56  42  59 NE5       29.95F
FORT STOCKTON  CLEAR     57  40  52 SE17G24   29.93F
GUAD PASS      CLEAR     55  37  50 NE16      30.00S
HOBBS          CLEAR     55  41  58 S9        29.94S
MARFA          NOT AVBL
MIDLAND AIRPK  CLEAR     61  39  43 S9        29.95S
MIDLAND INTL   CLEAR     61  39  44 S15       29.94S
ODESSA         CLEAR     60  38  43 S17       29.95S
PECOS          CLEAR     60  44  55 E12       29.88F
PRESIDIO       FAIR      66  46  47 N10G21    29.89S
SEMINOLE       CLEAR     53  39  60 S7        29.94S
SNYDER         CLEAR    N/A N/A N/A SE7       29.96S
WINK           CLEAR     61  40  45 SE17G25   29.90S
$$
...OTHER STATIONS IN TEXAS...

CITY           SKY/WX    TMP DP  RH WIND       PRES   REMARKS
ABILENE        CLEAR     54  42  64 SE12      29.97S
AMARILLO       RAIN      49  46  90 SE10      29.98F
AUSTIN         CLOUDY    56  52  86 CALM      30.01R
BROWNSVILLE    LGT RAIN  68  65  90 NE8       29.97F
CORPUS CHRISTI CLOUDY    66  54  65 NE7       29.98S
DALLAS FTW     PTCLDY    58  42  55 SE5       30.01R
DEL RIO        CLOUDY    65  44  46 SE9       29.96F
EL PASO        PTCLDY    68  24  19 S7        29.88S
HOUSTON INT    CLOUDY    61  56  83 CALM      30.00S
LUBBOCK        PTCLDY    54  38  54 S13       29.93F
SAN ANGELO     CLEAR     56  43  61 S6        29.96F
SAN ANTONIO    CLOUDY    62  50  64 CALM      29.99S
WACO           MOCLDY    53  48  83 CALM      30.01F
WICHITA FALLS  NOT AVBL
$$
...OTHER LOCATIONS IN NEW MEXICO...

CITY           SKY/WX    TMP DP  RH WIND       PRES   REMARKS
ALAMAGORDO     MOCLDY    66  25  20 S3        29.90S
ALBUQUERQUE    MOCLDY    55  23  28 S7        29.97R
CANNON AFB     PTCLDY    55  38  54 E5        29.91F
CLOVIS         MOCLDY    57  36  44 SE10      29.93S
HOLLOMAN AFB   MOCLDY    67  25  20 NE5       29.88R
ROSWELL        MOCLDY    57  41  55 VRB3      29.92R
RUIDOSO        MOCLDY    54  23  30 W9        30.06S
SANTA FE       MOCLDY    50  20  30 W6        29.98R
TRUTH OR CONSE PTCLDY    58  21  24 W8        29.93R
TUCUMCARI      MOCLDY    49  45  86 E9        29.90F
$$

USA.gov is the U.S. government's official web portal to all federal, state and local government web resources and services.